This is the latest recevied weather packets stored in our database for station/object W0DXV. If no packets are shown the sender has not sent any weather packets the latest 10 day(s).
| Time | Temp. | Humidity | Pressure | Rain* | Wind** | Luminosity | Snow |
|---|---|---|---|---|---|---|---|
| 1777332534 | 18.89° C | 57% | 1017.1 hPa | 0 mm | - | 21 W/m² | - |
| 1777332230 | 19.44° C | 52% | 1017 hPa | 0 mm | - | 23 W/m² | - |
| 1777331928 | 19.44° C | 52% | 1016.9 hPa | 0 mm | - | 24 W/m² | - |
| 1777331625 | 19.44° C | 54% | 1016.9 hPa | 0 mm | - | 24 W/m² | - |
| 1777331322 | 19.44° C | 56% | 1016.7 hPa | 0 mm | - | 26 W/m² | - |
| 1777331019 | 20° C | 51% | 1016.9 hPa | 0 mm | - | 28 W/m² | - |
| 1777330716 | 20° C | 50% | 1016.8 hPa | 0 mm | - | 32 W/m² | - |
| 1777330414 | 20° C | 49% | 1016.7 hPa | 0 mm | - | 37 W/m² | - |
| 1777330111 | 20° C | 51% | 1016.9 hPa | 0 mm | - | 42 W/m² | - |
| 1777329810 | 20.56° C | 55% | 1016.8 hPa | 0 mm | - | 44 W/m² | - |
| 1777329508 | 20.56° C | 49% | 1016.7 hPa | 0 mm | - | 40 W/m² | - |
| 1777329205 | 20.56° C | 47% | 1016.8 hPa | 0 mm | - | 38 W/m² | - |
| 1777328902 | 20.56° C | 46% | 1016.9 hPa | 0 mm | - | 36 W/m² | - |
| 1777328601 | 20.56° C | 46% | 1016.9 hPa | 0 mm | - | 36 W/m² | - |
| 1777328298 | 20.56° C | 45% | 1017 hPa | 0 mm | - | 37 W/m² | - |
| 1777327996 | 20.56° C | 50% | 1016.9 hPa | 0 mm | - | 37 W/m² | - |
| 1777327694 | 20.56° C | 49% | 1017 hPa | 0 mm | - | 37 W/m² | - |
| 1777327391 | 21.11° C | 45% | 1017.2 hPa | 0 mm | - | 38 W/m² | - |
| 1777327089 | 21.11° C | 43% | 1017 hPa | 0 mm | - | 38 W/m² | - |
| 1777326785 | 21.11° C | 43% | 1016.9 hPa | 0 mm | - | 38 W/m² | - |
| 1777326482 | 21.11° C | 46% | 1017.1 hPa | 0 mm | - | 37 W/m² | - |
| 1777326180 | 21.11° C | 43% | 1017 hPa | 0 mm | - | 38 W/m² | - |
| 1777325878 | 21.67° C | 45% | 1017 hPa | 0 mm | - | 37 W/m² | - |
| 1777325576 | 21.67° C | 42% | 1017.2 hPa | 0 mm | - | 38 W/m² | - |
| 1777325273 | 21.67° C | 43% | 1017.2 hPa | 0 mm | - | 39 W/m² | - |
* Rain latest hour (hover to see other rain measurements)
** Current wind speed in m/s (hover to see current wind gust speed)